{"data":{"norad_id":60994,"epoch":"2026-09-21T13:20:50.089920Z","epoch_age_seconds":97556,"freshness":"FRESH","line1":"1 60994U 24158E   26264.55613530  .00000283  00000+0  71934-5 0  9997","line2":"2 60994  53.1609  36.0156 0000843  92.1724 267.9391 15.69708872118353","mean_motion":15.69708872,"eccentricity":8.43e-5,"inclination_deg":53.1609,"raan_deg":36.0156,"arg_perigee_deg":92.1724,"mean_anomaly_deg":267.9391,"bstar":7.1934e-6,"rev_number":11835,"period_min":91.736756139071,"perigee_km":359.16197613967,"apogee_km":360.29798051221,"semimajor_km":6737.8669783259,"source":"CELESTRAK","updated_at":"2026-09-22T09:00:49.294939Z"}}